Time,TemperatureF,DewpointF,PressureIn,WindDirection,WindDirectionDegrees,WindSpeedMPH,WindSpeedGustMPH,Humidity,HourlyPrecipIn,Conditions,Clouds,dailyrainin,SoftwareType,DateUTC
2013-04-12 00:22:00,43.0,27.0,29.72,North,-999,0.0,0.0,53,0.00,,,-99.99,,2013-04-12 07:22:00,
2013-04-12 00:32:00,43.0,27.0,29.72,North,-999,0.0,0.0,53,0.00,,,-99.99,,2013-04-12 07:32:00,
2013-04-12 01:22:00,41.0,25.0,29.72,North,-999,0.0,0.0,52,0.00,,,-99.99,,2013-04-12 08:22:00,
2013-04-12 01:32:00,41.0,25.0,29.72,North,-999,0.0,0.0,52,0.00,,,-99.99,,2013-04-12 08:32:00,
2013-04-12 02:22:00,43.0,23.0,29.71,North,-999,0.0,0.0,45,0.00,,,-99.99,,2013-04-12 09:22:00,
2013-04-12 02:32:00,43.0,23.0,29.71,North,-999,0.0,0.0,45,0.00,,,-99.99,,2013-04-12 09:32:00,
2013-04-12 03:23:00,43.0,23.0,29.70,North,-999,0.0,0.0,44,0.00,,,-99.99,,2013-04-12 10:23:00,
2013-04-12 03:33:00,43.0,23.0,29.70,North,-999,0.0,0.0,44,0.00,,,-99.99,,2013-04-12 10:33:00,
2013-04-12 04:22:00,43.0,23.0,29.71,North,-999,0.0,0.0,44,0.00,,,-99.99,,2013-04-12 11:22:00,
2013-04-12 04:32:00,43.0,23.0,29.71,North,-999,0.0,0.0,44,0.00,,,-99.99,,2013-04-12 11:32:00,
2013-04-12 05:22:00,41.0,22.0,29.70,North,-999,0.0,0.0,47,0.00,,,-99.99,,2013-04-12 12:22:00,
2013-04-12 05:32:00,41.0,22.0,29.70,North,-999,0.0,0.0,47,0.00,,,-99.99,,2013-04-12 12:32:00,
2013-04-12 06:22:00,41.0,22.0,29.70,North,-999,0.0,0.0,46,0.00,,,-99.99,,2013-04-12 13:22:00,
2013-04-12 06:32:00,41.0,22.0,29.70,North,-999,0.0,0.0,46,0.00,,,-99.99,,2013-04-12 13:32:00,
2013-04-12 07:22:00,42.0,23.0,29.72,North,-999,0.0,0.0,47,0.00,,,-99.99,,2013-04-12 14:22:00,
2013-04-12 07:32:00,42.0,23.0,29.72,North,-999,0.0,0.0,47,0.00,,,-99.99,,2013-04-12 14:32:00,
2013-04-12 08:22:00,46.0,27.0,29.74,North,-999,0.0,0.0,48,0.00,,,-99.99,,2013-04-12 15:22:00,
2013-04-12 08:33:00,46.0,27.0,29.74,North,-999,0.0,0.0,48,0.00,,,-99.99,,2013-04-12 15:33:00,
2013-04-12 08:43:00,46.0,27.0,29.74,North,-999,0.0,0.0,48,0.00,,,-99.99,,2013-04-12 15:43:00,
2013-04-12 09:23:00,54.0,28.0,29.76,NNE,30,7.0,7.0,36,0.00,,,-99.99,,2013-04-12 16:23:00,
2013-04-12 09:33:00,54.0,28.0,29.76,NNE,30,7.0,7.0,36,0.00,,,-99.99,,2013-04-12 16:33:00,
2013-04-12 09:42:00,54.0,28.0,29.76,NNE,30,7.0,7.0,36,0.00,,,-99.99,,2013-04-12 16:42:00,
2013-04-12 10:22:00,57.0,26.0,29.77,NNE,30,3.0,10.0,30,0.00,,,-99.99,,2013-04-12 17:22:00,
2013-04-12 10:33:00,57.0,26.0,29.77,NNE,30,3.0,10.0,30,0.00,,,-99.99,,2013-04-12 17:33:00,
2013-04-12 10:44:00,57.0,26.0,29.77,NNE,30,3.0,10.0,30,0.00,,,-99.99,,2013-04-12 17:44:00,
2013-04-12 12:26:00,59.0,27.0,29.79,NE,40,6.0,12.0,29,0.00,,,-99.99,,2013-04-12 19:26:00,
2013-04-12 12:32:00,59.0,27.0,29.79,NE,40,6.0,12.0,29,0.00,,,-99.99,,2013-04-12 19:32:00,
2013-04-12 12:42:00,59.0,27.0,29.79,NE,40,6.0,12.0,29,0.00,,,-99.99,,2013-04-12 19:42:00,
2013-04-12 13:22:00,60.0,27.0,29.79,NE,50,2.0,9.0,28,0.00,,,-99.99,,2013-04-12 20:22:00,
2013-04-12 13:32:00,60.0,27.0,29.79,NE,50,2.0,9.0,28,0.00,,,-99.99,,2013-04-12 20:32:00,
2013-04-12 13:42:00,60.0,27.0,29.79,NE,50,2.0,9.0,28,0.00,,,-99.99,,2013-04-12 20:42:00,
2013-04-12 14:22:00,60.0,23.0,29.78,NE,40,3.0,14.0,24,0.00,,,-99.99,,2013-04-12 21:22:00,
2013-04-12 14:32:00,60.0,23.0,29.78,NE,40,3.0,14.0,24,0.00,,,-99.99,,2013-04-12 21:32:00,
2013-04-12 14:42:00,60.0,23.0,29.78,NE,40,3.0,14.0,24,0.00,,,-99.99,,2013-04-12 21:42:00,
2013-04-12 16:22:00,57.0,23.0,29.75,North,0,0.0,3.0,27,0.00,,,-99.99,,2013-04-12 23:22:00,
2013-04-12 16:32:00,57.0,23.0,29.75,North,0,0.0,3.0,27,0.00,,,-99.99,,2013-04-12 23:32:00,
2013-04-12 16:42:00,57.0,23.0,29.75,North,0,0.0,3.0,27,0.00,,,-99.99,,2013-04-12 23:42:00,
2013-04-12 17:22:00,56.0,23.0,29.75,North,0,0.0,3.0,27,0.00,,,-99.99,,2013-04-13 00:22:00,
2013-04-12 17:32:00,56.0,23.0,29.75,North,0,0.0,3.0,27,0.00,,,-99.99,,2013-04-13 00:32:00,
2013-04-12 17:42:00,56.0,23.0,29.75,North,0,0.0,3.0,27,0.00,,,-99.99,,2013-04-13 00:42:00,
2013-04-12 18:22:00,58.0,24.0,29.75,NE,40,2.0,5.0,27,0.00,,,-99.99,,2013-04-13 01:22:00,
2013-04-12 18:32:00,58.0,24.0,29.75,NE,40,2.0,5.0,27,0.00,,,-99.99,,2013-04-13 01:32:00,
2013-04-12 18:42:00,58.0,24.0,29.75,NE,40,2.0,5.0,27,0.00,,,-99.99,,2013-04-13 01:42:00,
2013-04-12 19:22:00,53.0,32.0,29.75,SW,220,1.0,3.0,44,0.00,,,-99.99,,2013-04-13 02:22:00,
2013-04-12 19:32:00,53.0,32.0,29.75,SW,220,1.0,3.0,44,0.00,,,-99.99,,2013-04-13 02:32:00,
2013-04-12 19:42:00,53.0,32.0,29.75,SW,220,1.0,3.0,44,0.00,,,-99.99,,2013-04-13 02:42:00,
2013-04-12 20:22:00,50.0,28.0,29.77,WSW,240,1.0,5.0,43,0.00,,,-99.99,,2013-04-13 03:22:00,
2013-04-12 20:33:00,50.0,28.0,29.77,WSW,240,1.0,5.0,43,0.00,,,-99.99,,2013-04-13 03:33:00,
2013-04-12 20:42:00,50.0,28.0,29.77,WSW,240,1.0,5.0,43,0.00,,,-99.99,,2013-04-13 03:42:00,
2013-04-12 21:23:00,48.0,27.0,29.79,North,-999,0.0,0.0,44,0.00,,,-99.99,,2013-04-13 04:23:00,
2013-04-12 21:33:00,48.0,27.0,29.79,North,-999,0.0,0.0,44,0.00,,,-99.99,,2013-04-13 04:33:00,
2013-04-12 21:42:00,48.0,27.0,29.79,North,-999,0.0,0.0,44,0.00,,,-99.99,,2013-04-13 04:42:00,
2013-04-12 22:22:00,47.0,27.0,29.80,North,0,0.0,3.0,45,0.00,,,-99.99,,2013-04-13 05:22:00,
2013-04-12 22:32:00,47.0,27.0,29.80,North,0,0.0,3.0,45,0.00,,,-99.99,,2013-04-13 05:32:00,
2013-04-12 22:45:00,46.0,24.0,29.80,North,-999,0.0,0.0,42,0.00,,,-99.99,,2013-04-13 05:45:00,
2013-04-12 23:23:00,46.0,24.0,29.80,North,-999,0.0,0.0,42,0.00,,,-99.99,,2013-04-13 06:23:00,